TimeCST,TemperatureF,Dew PointF,Humidity,Sea Level PressureIn,VisibilityMPH,Wind Direction,Wind SpeedMPH,Gust SpeedMPH,PrecipitationIn,Events,Conditions,WindDirDegrees,DateUTC
12:15 AM,24.4,19.2,81,30.01,10.0,West,10.4,-,N/A,,Overcast,260,2013-02-23 06:15:00
12:35 AM,24.4,18.5,78,30.02,10.0,West,12.7,-,N/A,,Overcast,270,2013-02-23 06:35:00
12:55 AM,23.9,17.8,77,30.01,10.0,West,15.0,-,N/A,,Overcast,270,2013-02-23 06:55:00
1:15 AM,23.5,17.6,78,30.01,10.0,West,11.5,-,N/A,,Overcast,260,2013-02-23 07:15:00
1:35 AM,23.0,17.6,80,30.01,10.0,West,10.4,-,N/A,,Overcast,260,2013-02-23 07:35:00
1:55 AM,23.0,17.6,80,30.02,10.0,WSW,11.5,-,N/A,,Overcast,250,2013-02-23 07:55:00
2:15 AM,23.9,17.4,76,30.01,10.0,West,9.2,-,N/A,,Overcast,260,2013-02-23 08:15:00
2:35 AM,23.5,17.6,78,30.01,10.0,West,9.2,-,N/A,,Overcast,260,2013-02-23 08:35:00
2:55 AM,23.0,17.6,80,30.00,10.0,WSW,9.2,-,N/A,,Overcast,250,2013-02-23 08:55:00
3:15 AM,22.8,17.1,79,30.00,10.0,West,9.2,-,N/A,,Overcast,260,2013-02-23 09:15:00
3:35 AM,23.0,17.2,79,30.01,10.0,WSW,10.4,-,N/A,,Overcast,250,2013-02-23 09:35:00
3:55 AM,22.8,17.2,79,30.01,10.0,West,8.1,-,N/A,,Overcast,260,2013-02-23 09:55:00
4:15 AM,22.6,17.2,80,30.00,10.0,WSW,10.4,-,N/A,,Overcast,250,2013-02-23 10:15:00
4:35 AM,23.0,16.7,77,30.01,10.0,West,10.4,-,N/A,,Overcast,270,2013-02-23 10:35:00
4:55 AM,22.8,17.1,79,30.02,10.0,West,9.2,-,N/A,,Overcast,270,2013-02-23 10:55:00
5:15 AM,22.5,16.5,78,30.01,10.0,West,13.8,-,N/A,,Overcast,280,2013-02-23 11:15:00
5:35 AM,22.1,16.5,79,30.01,10.0,West,11.5,-,N/A,,Overcast,280,2013-02-23 11:35:00
5:55 AM,22.1,16.5,79,30.02,10.0,West,9.2,-,N/A,,Overcast,270,2013-02-23 11:55:00
6:15 AM,22.1,16.7,80,30.01,10.0,West,8.1,-,N/A,,Overcast,270,2013-02-23 12:15:00
6:35 AM,21.9,16.5,80,30.01,10.0,West,9.2,-,N/A,,Overcast,280,2013-02-23 12:35:00
6:55 AM,21.7,16.7,81,30.01,10.0,West,8.1,-,N/A,,Overcast,280,2013-02-23 12:55:00
7:15 AM,21.9,16.5,80,30.02,10.0,West,8.1,-,N/A,,Overcast,260,2013-02-23 13:15:00
7:35 AM,21.9,16.5,80,30.03,10.0,West,10.4,-,N/A,,Overcast,260,2013-02-23 13:35:00
7:55 AM,21.9,16.7,80,30.02,10.0,West,9.2,-,N/A,,Overcast,280,2013-02-23 13:55:00
8:15 AM,21.9,16.5,80,30.02,10.0,West,8.1,-,N/A,,Overcast,270,2013-02-23 14:15:00
8:35 AM,22.1,16.7,80,30.02,10.0,West,8.1,-,N/A,,Overcast,270,2013-02-23 14:35:00
8:55 AM,22.5,16.5,78,30.02,10.0,WNW,8.1,-,N/A,,Overcast,290,2013-02-23 14:55:00
9:15 AM,22.5,16.7,79,30.03,10.0,West,10.4,-,N/A,,Overcast,260,2013-02-23 15:15:00
9:35 AM,22.5,16.3,77,30.03,10.0,West,8.1,-,N/A,,Overcast,280,2013-02-23 15:35:00
9:55 AM,23.0,16.7,77,30.02,10.0,West,6.9,-,N/A,,Overcast,270,2013-02-23 15:55:00
10:15 AM,23.5,17.2,77,30.02,10.0,WNW,8.1,-,N/A,,Overcast,300,2013-02-23 16:15:00
10:35 AM,23.5,17.4,77,30.01,10.0,WNW,9.2,-,N/A,,Mostly Cloudy,300,2013-02-23 16:35:00
10:55 AM,23.5,17.1,76,30.01,10.0,WNW,5.8,-,N/A,,Mostly Cloudy,290,2013-02-23 16:55:00
11:15 AM,23.9,17.1,75,30.02,10.0,WNW,5.8,-,N/A,,Mostly Cloudy,300,2013-02-23 17:15:00
11:35 AM,24.4,17.2,74,30.02,10.0,WNW,3.5,-,N/A,,Scattered Clouds,290,2013-02-23 17:35:00
11:55 AM,24.8,17.6,74,30.02,10.0,Calm,Calm,-,N/A,,Clear,0,2013-02-23 17:55:00
12:15 PM,25.7,17.8,72,30.01,10.0,Calm,Calm,-,N/A,,Clear,0,2013-02-23 18:15:00
12:35 PM,25.2,18.0,74,30.00,10.0,WSW,4.6,-,N/A,,Clear,240,2013-02-23 18:35:00
12:55 PM,24.8,17.6,74,30.00,10.0,West,5.8,-,N/A,,Clear,260,2013-02-23 18:55:00
1:15 PM,26.4,18.3,71,30.00,10.0,West,6.9,-,N/A,,Clear,280,2013-02-23 19:15:00
1:35 PM,26.6,18.7,72,30.00,10.0,West,6.9,-,N/A,,Clear,280,2013-02-23 19:35:00
1:55 PM,27.3,19.4,72,30.00,10.0,West,6.9,-,N/A,,Clear,280,2013-02-23 19:55:00
2:15 PM,27.9,19.6,71,29.99,10.0,West,8.1,-,N/A,,Clear,260,2013-02-23 20:15:00
2:35 PM,27.9,19.2,70,29.99,10.0,West,5.8,-,N/A,,Clear,270,2013-02-23 20:35:00
2:55 PM,28.4,19.2,69,29.99,10.0,WSW,4.6,-,N/A,,Clear,250,2013-02-23 20:55:00
3:15 PM,28.0,19.0,69,29.99,10.0,West,4.6,-,N/A,,Clear,260,2013-02-23 21:15:00
3:35 PM,28.0,19.6,71,29.99,10.0,West,6.9,-,N/A,,Clear,270,2013-02-23 21:35:00
3:55 PM,28.4,19.4,69,29.99,10.0,WSW,3.5,-,N/A,,Clear,240,2013-02-23 21:55:00
4:15 PM,27.1,20.1,75,29.99,10.0,West,5.8,-,N/A,,Clear,270,2013-02-23 22:15:00
4:35 PM,27.3,19.4,72,29.99,10.0,SW,6.9,-,N/A,,Clear,220,2013-02-23 22:35:00
4:55 PM,27.0,19.2,73,29.99,10.0,SW,6.9,-,N/A,,Clear,220,2013-02-23 22:55:00
5:15 PM,27.0,18.5,70,29.99,10.0,SW,9.2,-,N/A,,Clear,220,2013-02-23 23:15:00
5:35 PM,25.7,18.5,74,30.00,10.0,SW,8.1,-,N/A,,Clear,230,2013-02-23 23:35:00
5:55 PM,24.3,17.6,76,30.00,10.0,SW,6.9,-,N/A,,Clear,230,2013-02-23 23:55:00
6:15 PM,23.2,16.9,77,30.00,10.0,SW,4.6,-,N/A,,Clear,230,2013-02-24 00:15:00
6:35 PM,23.4,16.9,76,30.00,10.0,SW,4.6,-,N/A,,Clear,220,2013-02-24 00:35:00
6:55 PM,23.0,16.7,77,30.00,10.0,SSW,3.5,-,N/A,,Clear,210,2013-02-24 00:55:00
7:15 PM,21.0,16.0,81,30.00,10.0,SSW,3.5,-,N/A,,Clear,200,2013-02-24 01:15:00
7:35 PM,20.3,15.6,82,30.00,10.0,SSW,4.6,-,N/A,,Clear,200,2013-02-24 01:35:00
7:55 PM,19.8,15.1,82,30.00,10.0,SSW,4.6,-,N/A,,Clear,200,2013-02-24 01:55:00
8:15 PM,20.5,16.2,83,30.01,10.0,SSW,3.5,-,N/A,,Clear,210,2013-02-24 02:15:00
8:35 PM,21.0,16.5,83,30.01,10.0,SSW,4.6,-,N/A,,Clear,210,2013-02-24 02:35:00
8:55 PM,18.7,14.5,84,30.01,10.0,SW,6.9,-,N/A,,Clear,220,2013-02-24 02:55:00
9:35 PM,17.4,13.8,86,30.02,10.0,SSW,5.8,-,N/A,,Clear,210,2013-02-24 03:35:00
9:55 PM,18.9,15.3,86,30.02,10.0,SW,4.6,-,N/A,,Clear,220,2013-02-24 03:55:00
10:15 PM,19.4,15.8,86,30.02,10.0,SW,5.8,-,N/A,,Clear,220,2013-02-24 04:15:00
10:35 PM,18.3,14.5,85,30.02,10.0,SW,8.1,-,N/A,,Clear,230,2013-02-24 04:35:00
10:55 PM,18.5,14.9,86,30.01,10.0,SW,5.8,-,N/A,,Clear,220,2013-02-24 04:55:00
11:15 PM,17.2,13.5,85,30.01,10.0,SW,5.8,-,N/A,,Clear,220,2013-02-24 05:15:00
11:35 PM,17.8,14.5,87,30.00,10.0,SW,4.6,-,N/A,,Clear,220,2013-02-24 05:35:00
11:55 PM,18.0,14.7,87,30.02,10.0,SW,5.8,-,N/A,,Clear,220,2013-02-24 05:55:00